C/2008 H1 ( LINEAR )

Japanese version
Home page
Total 5,708 html files since Dec. 4, 1995
Updated on May 15, 2008

---------------------------------------------------------------------

* Profile

Discovery Date April 18, 2008
Magnitude 18.1 mag
Discoverer Lincoln Laboratory Near-Earth Asteroid Research project

* Pictures

* Orbital Elements

T 2008 Mar. 16.566 TT                                   MPC
q   2.76108              (2000.0)            P               Q
z  +0.01878        Peri.   96.084       -0.228697       -0.803260
                   Node    34.616       -0.250144       -0.497489
e   0.94815        Incl.   75.497       +0.940811       -0.327533
From 127 observations 2008 Apr. 18-May 9.

* Finding Charts

* Magnitudes Graph

        m1 = 10.5 + 5 log d + 10.0 log r

---------------------------------------------------------------------

The orbital elements are published on M.P.E.C. 2008-J54.
The charts are made with StellaNavigator Ver.8 (AstroArts).
The magnitudes graphs are made with Comet for Windows.

---------------------------------------------------------------------

Copyright(C) 1995-2007 Seiichi Yoshida (comet@aerith.net). All rights reserved.